Temperature
14 14 15 15 15 15 15 15 15 15 15 15 15 15 15 15 15 15 15 15 15 15 15 14 14 15 15 15 15 15 15 15 15 15 15 14 14 15 15 15 14 14 14
14 14 14 14 14 14 14 14 14 14 15 15 15 15 15 15 14 14 14 14 14 14 14 14 14 14 14 14 14 14 15 14 15 14 14 14 14 14 14 14 14 14 14
14 14 14 14 14 14 14 14 14 14 14 15 14 14 14 14 14 14 14 14 14 14 14 14 14 14 14 14 14 14 14 14 14 14 14 13 13 14 14 14 14 14 14
13 13 13 14 14 14 14 14 14 14 14 14 14 14 14 14 14 14 14 14 14 14 14 14 14 14 14 14 14 14 14 14 14 14 13 13 13 13 13 13 13 13 13
13 13 13 13 13 13 14 14 14 14 14 14 14 14 14 14 14 14 14 14 14 14 14 14 14 14 14 14 14 14 14 14 14 13 13 13 13 13 13 13 13 13 13
13 13 13 13 13 13 13 14 14 14 13 13 14 14 14 14 14 14 14 14 14 14 14 14 14 14 14 14 14 14 14 14 13 13 13 13 13 13 13 13 13 13 13
12 12 12 13 13 13 13 13 13 13 13 13 13 13 14 14 13 13 13 13 13 13 13 13 14 14 14 14 13 13 13 13 13 13 13 13 13 13 13 13 13 13 13
12 12 12 12 13 13 13 13 13 13 13 13 13 13 13 13 13 13 13 13 13 13 13 13 13 14 14 13 13 13 13 13 13 12 12 12 13 13 13 13 13 12 12
12 12 12 12 12 12 13 13 13 13 13 13 13 13 13 13 13 13 13 13 13 13 13 13 13 13 13 13 13 13 13 13 12 12 12 12 12 12 12 12 12 12 12
12 12 12 12 12 12 12 12 13 13 13 13 13 13 13 13 13 13 13 13 13 13 13 13 13 13 13 13 13 13 13 12 12 12 12 12 12 12 12 12 12 12 11
11 11 11 11 12 12 12 12 12 12 12 12 12 12 12 12 12 12 13 13 12 12 12 13 13 13 13 13 12 12 12 12 12 12 11 12 12 12 12 11 11 11 11
11 11 11 11 11 11 12 12 12 12 12 12 12 12 12 12 12 12 12 12 12 12 12 12 12 12 12 12 12 12 12 12 11 11 11 12 11 11 11 11 11 11 11
10 11 11 11 11 11 11 11 11 11 11 11 11 11 11 12 12 12 12 12 12 12 12 12 12 12 12 12 12 12 11 11 11 11 11 11 11 11 11 11 11 11 10
10 10 10 10 10 11 11 11 11 11 11 11 11 11 11 11 11 11 11 11 11 11 11 11 11 11 11 11 11 11 11 11 11 11 11 11 11 11 10 10 10 10 10
10 10 10 10 10 10 10 10 10 11 11 11 11 11 11 11 11 11 11 11 11 11 11 11 11 11 11 11 11 11 11 11 11 10 10 11 11 10 10 10 10 10 10
9 9 9 10 10 10 10 10 10 10 10 10 10 10 10 10 10 10 10 10 10 10 10 10 10 10 10 10 10 10 10 10 10 10 10 10 10 10 10 10 10 10 10
9 9 9 9 9 9 9 10 10 10 10 10 10 10 10 10 10 9 10 10 10 10 10 10 10 10 10 10 10 10 10 10 10 10 10 10 10 10 10 10 10 9 9
8 8 8 9 9 9 9 9 9 9 9 9 9 9 9 9 9 9 9 9 9 9 9 9 9 9 9 9 9 9 9 9 9 9 9 9 9 9 9 9 9 9 9
8 8 8 8 8 8 8 8 8 8 8 8 8 8 8 8 8 8 8 8 8 8 8 8 8 8 8 8 9 9 9 9 9 9 9 9 9 9 9 9 9 9 9
7 7 7 8 8 8 8 8 8 8 8 8 8 8 8 8 8 8 8 8 8 8 8 8 8 8 8 8 8 8 8 8 8 8 8 8 8 8 8 8 8 8 8
7 7 7 7 7 7 7 7 7 7 7 7 7 7 7 7 7 7 7 7 7 7 7 7 7 7 7 7 7 7 7 7 7 7 7 7 7 7 7 7 7 7 7
6 7 7 7 7 7 7 7 7 7 7 7 7 7 7 7 7 6 6 6 6 6 6 6 7 6 6 6 6 6 6 6 6 7 7 7 7 7 7 7 7 7 7
6 6 6 6 6 6 6 6 6 6 6 6 6 6 6 6 6 6 6 6 6 6 6 6 6 6 6 5 5 5 5 6 5 6 6 6 6 6 6 6 6 6 6
5 6 6 6 6 6 6 6 6 5 5 6 5 5 5 5 5 5 5 5 5 5 5 5 5 5 5 5 5 5 5 5 4 5 5 5 6 6 6 6 6 6 6
5 5 5 5 5 5 5 5 5 5 5 5 5 5 5 5 5 5 5 5 5 5 5 5 5 5 5 4 4 4 4 4 4 4 4 5 5 5 5 5 5 5 5
4 5 5 5 5 5 5 4 4 4 4 4 4 4 4 4 4 4 4 4 4 4 4 4 4 4 4 4 4 4 3 3 4 3 3 4 4 4 5 5 5 5 5
Wind_Speed
3 4 5 5 6 7 9 9 9 10 10 10 9 9 9 8 8 8 8 8 8 8 8 8 8 9 9 9 10 10 10 10 10 10 10 10 10 10 11 10 8 8 10
3 5 6 6 7 8 9 9 9 9 9 10 9 9 9 8 8 9 8 8 8 7 7 8 8 8 8 9 9 9 9 9 10 9 9 9 10 10 10 9 8 8 8
4 6 7 7 7 8 9 9 9 9 9 9 9 9 8 8 8 8 8 8 8 7 7 7 7 7 8 8 8 8 9 9 8 8 5 6 8 9 9 8 8 8 8
5 6 7 8 8 8 8 9 9 9 9 9 8 8 8 8 8 8 7 7 7 7 7 7 6 6 7 7 7 8 8 8 7 4 4 6 6 8 8 7 7 7 7
6 7 8 9 9 9 9 9 9 9 9 9 8 8 8 8 7 7 7 6 6 6 6 7 6 6 6 7 7 7 7 7 5 3 5 5 5 7 6 6 6 6 6
7 7 9 9 10 10 10 9 9 9 8 8 8 7 7 7 7 6 6 6 6 6 6 6 6 6 6 6 6 6 5 5 3 4 4 3 4 5 4 4 4 5 5
6 7 9 10 10 10 10 10 10 9 9 8 8 8 7 6 6 6 6 5 6 5 5 5 5 5 5 5 5 5 4 3 2 3 2 2 3 4 3 3 4 4 3
6 7 8 10 10 10 10 10 9 9 9 7 7 7 7 7 6 6 6 5 6 6 5 5 5 5 4 4 4 3 3 2 2 1 2 2 4 3 3 3 3 3 2
6 7 7 7 8 9 10 9 9 9 9 8 7 7 7 7 7 6 5 5 5 5 5 5 4 4 4 4 3 3 2 2 2 1 1 1 3 2 2 2 2 2 2
5 5 6 6 6 7 7 8 8 8 8 8 8 7 6 6 6 6 5 4 4 3 3 3 3 3 3 3 3 2 1 3 2 1 1 1 2 1 1 1 1 1 1
5 4 4 5 5 5 6 7 7 7 7 6 6 6 4 3 3 3 4 4 3 3 2 2 2 2 2 2 2 1 1 2 2 1 1 1 1 2 2 1 0 1 1
4 3 3 4 4 4 4 4 4 4 4 4 4 4 3 2 3 3 3 3 3 2 1 1 1 1 1 1 1 1 2 2 2 1 1 1 2 3 3 2 2 2 2
3 3 2 2 3 3 3 3 3 3 3 3 4 3 3 2 2 2 1 1 1 0 0 0 1 1 1 1 1 1 2 2 2 1 1 1 3 4 4 3 3 3 3
3 2 2 2 2 3 3 3 2 2 2 2 3 3 2 2 2 2 1 2 1 1 1 1 1 1 2 2 2 2 3 2 3 2 1 1 2 4 5 5 5 5 5
2 2 1 2 2 2 2 2 2 2 2 2 2 2 2 2 1 1 2 2 2 2 2 2 2 2 2 2 3 3 3 3 4 4 3 2 3 4 5 6 6 6 6
2 2 1 1 1 2 2 2 1 1 1 1 1 2 2 2 2 2 2 2 2 2 2 3 3 3 3 3 3 4 4 4 4 4 4 4 4 5 6 6 6 7 7
3 2 2 2 2 1 1 2 2 1 1 1 1 2 2 2 2 2 2 2 2 3 3 3 3 3 3 3 4 4 4 5 5 5 5 4 4 5 6 6 6 7 8
3 2 2 2 2 1 1 1 1 1 1 1 1 1 2 2 3 2 2 2 3 3 2 2 3 3 3 4 4 4 4 4 5 5 4 4 4 4 5 5 6 7 8
3 3 2 2 2 1 1 1 1 1 1 1 1 2 2 2 3 2 2 3 3 2 2 2 3 3 3 4 4 4 4 4 4 4 4 4 4 4 4 4 5 6 8
2 2 2 2 1 1 1 1 1 1 0 1 1 2 2 2 3 3 2 3 3 2 2 2 3 3 3 4 4 4 4 4 4 4 4 4 3 4 5 5 5 6 7
2 2 2 1 1 1 1 1 1 1 1 1 1 2 2 2 3 3 3 3 3 3 3 3 3 3 3 3 3 4 4 4 4 4 3 4 4 4 5 5 5 6 6
3 2 2 2 2 2 1 1 1 1 2 2 2 2 3 3 3 3 3 3 3 3 3 3 3 3 3 2 3 3 3 4 4 4 4 4 5 5 5 6 6 6 7
3 3 2 2 2 2 2 1 1 1 1 2 2 2 3 4 4 3 4 4 4 4 3 4 4 4 4 3 3 3 3 3 3 4 5 5 5 5 5 5 7 7 8
2 2 2 3 3 3 3 3 3 3 3 3 3 3 4 4 4 4 4 5 4 4 4 5 5 5 5 5 4 4 5 4 3 3 3 5 6 7 7 6 7 7 8
2 2 2 3 3 3 4 4 4 4 4 3 3 4 4 4 4 5 5 5 5 5 5 5 5 6 5 6 5 4 5 5 6 4 5 5 5 6 6 7 6 6 7
1 1 2 2 3 3 4 4 5 5 5 4 4 4 4 4 4 5 5 5 5 5 6 6 6 6 6 7 6 6 5 5 5 5 6 7 7 6 6 6 6 6 6
Wind_Direction
145 138 124 120 114 109 105 103 101 97 95 95 96 94 98 101 101 101 102 98 95 93 92 93 93 88 85 84 86 85 82 80 82 85 87 90 88 88 85 83 85 87 88
148 142 125 124 118 114 110 106 101 97 95 93 92 92 95 99 96 94 94 93 92 92 89 87 89 88 86 86 89 89 86 84 81 85 91 95 90 88 87 82 73 82 89
129 129 128 119 115 114 111 106 101 97 95 92 91 89 89 94 94 90 89 91 89 87 88 87 88 87 87 88 91 90 89 88 84 84 99 96 94 91 90 87 84 84 86
116 117 114 106 109 109 108 105 101 98 95 92 90 87 88 95 93 92 91 91 89 87 86 86 89 90 91 92 94 92 92 89 85 90 91 87 92 95 94 91 89 87 83
109 107 102 100 102 102 102 102 99 95 94 91 87 84 84 90 92 90 89 91 91 89 86 84 86 91 96 100 100 98 96 92 90 94 80 83 86 92 91 90 87 87 86
105 103 99 97 96 96 95 93 92 90 88 87 83 81 80 81 84 86 84 86 88 89 90 88 88 88 96 102 104 103 100 101 118 93 80 82 85 89 90 95 93 87 89
105 99 97 93 93 90 88 87 85 85 82 80 78 77 77 80 81 81 82 84 82 84 86 88 91 89 90 97 102 108 106 112 115 97 85 83 83 84 97 110 106 95 91
106 97 93 89 88 87 86 83 81 79 75 74 73 72 72 73 78 78 81 82 81 79 81 81 82 83 86 89 94 106 114 141 145 114 99 92 83 80 92 104 112 104 103
101 99 92 94 90 86 81 79 77 75 73 69 67 67 69 66 66 69 73 78 79 80 81 83 83 77 77 74 78 99 121 166 204 154 135 100 93 89 91 104 116 121 132
96 94 92 89 88 88 86 81 80 76 71 67 63 59 66 68 66 64 65 70 73 74 78 84 86 85 84 76 71 72 142 196 216 198 190 103 101 151 143 133 128 166 176
99 90 85 87 83 82 85 84 84 80 72 70 68 60 58 65 68 67 54 54 63 69 69 78 82 83 91 99 85 73 191 224 226 231 232 98 152 196 192 185 188 221 220
115 99 79 82 83 81 80 83 79 78 73 61 55 50 42 41 43 44 60 55 48 55 82 92 103 148 213 176 147 189 230 248 257 243 259 147 225 223 221 227 239 252 243
128 100 84 85 87 84 81 74 66 65 62 55 45 36 31 30 32 29 23 43 23 339 272 199 201 229 246 249 244 239 259 255 249 252 275 211 247 238 233 240 250 254 254
135 112 88 80 84 81 83 80 70 61 55 49 39 25 19 19 8 6 353 348 320 301 293 273 264 258 262 261 258 256 258 255 253 250 265 227 268 254 238 240 251 256 258
154 130 107 84 81 78 84 75 69 59 54 51 37 19 6 358 349 342 336 331 324 299 269 273 267 261 262 264 261 261 261 257 259 253 246 225 253 270 256 248 250 254 260
181 166 136 121 91 89 86 83 72 63 53 49 38 12 355 344 338 325 315 309 312 309 291 266 264 262 260 259 260 259 259 256 254 253 250 233 238 259 259 256 257 259 263
189 169 148 144 119 110 92 84 76 62 48 43 22 358 347 337 323 318 305 296 301 296 289 279 265 261 258 258 260 262 259 255 253 252 250 248 246 247 252 258 264 268 269
179 159 143 137 139 130 101 92 83 66 51 40 21 5 354 342 326 312 303 292 295 287 280 270 266 259 257 260 263 263 258 253 250 250 250 248 252 257 251 256 267 273 275
180 164 150 149 161 161 134 113 99 87 50 24 16 4 347 330 320 313 306 309 298 283 274 270 263 262 262 265 267 265 257 249 245 242 240 245 252 264 266 258 261 271 276
178 163 155 151 153 167 159 160 145 124 58 10 357 348 334 323 316 311 304 304 304 280 273 270 273 268 263 274 270 265 258 248 240 236 239 244 250 262 265 272 269 269 272
174 170 168 167 163 164 183 213 222 246 268 299 317 313 314 316 316 312 307 300 296 282 277 270 267 269 270 276 268 262 248 235 235 233 241 248 255 263 263 268 274 278 276
189 189 196 198 203 203 218 234 248 273 267 281 293 295 300 302 301 304 300 291 288 283 276 271 265 265 269 266 268 267 257 235 224 235 239 247 259 265 264 265 268 272 274
208 217 224 224 224 226 227 223 225 245 259 267 280 283 297 297 291 293 292 289 283 276 273 266 258 254 255 255 248 260 263 256 272 234 233 242 254 262 266 266 263 268 270
225 238 242 240 235 229 221 222 227 242 258 273 280 283 289 286 283 284 285 281 278 272 266 263 253 251 248 248 245 243 255 272 263 270 248 249 258 262 263 265 266 267 268
232 245 250 250 248 237 228 229 236 248 260 272 276 279 287 286 282 284 283 280 275 272 267 262 258 248 244 246 245 245 245 251 249 257 271 273 273 265 262 266 267 268 269
243 252 254 249 258 250 238 236 240 251 258 265 272 278 282 280 277 281 283 276 273 272 269 263 258 252 245 246 246 244 244 245 246 251 264 275 279 279 277 270 267 269 271
Height
1521 1522 1524 1525 1526 1526 1527 1528 1528 1529 1529 1529 1529 1530 1530 1530 1530 1530 1530 1530 1530 1530 1530 1530 1529 1529 1529 1529 1528 1528 1528 1528 1528 1528 1528 1528 1528 1528 1527 1527 1528 1528 1528
1521 1522 1523 1525 1526 1527 1528 1528 1529 1529 1530 1530 1530 1530 1530 1531 1531 1531 1531 1531 1531 1531 1530 1530 1530 1530 1529 1529 1529 1529 1529 1529 1529 1529 1529 1529 1529 1529 1528 1528 1528 1529 1528
1521 1523 1524 1525 1526 1527 1528 1529 1529 1530 1530 1530 1531 1531 1531 1531 1531 1531 1531 1531 1531 1531 1531 1531 1530 1530 1530 1530 1530 1530 1530 1530 1530 1530 1530 1530 1530 1529 1529 1529 1529 1529 1529
1521 1523 1524 1525 1526 1527 1528 1529 1529 1530 1530 1531 1531 1531 1531 1532 1532 1532 1532 1532 1532 1531 1531 1531 1531 1531 1530 1530 1530 1530 1530 1530 1530 1530 1531 1531 1531 1530 1530 1530 1530 1530 1529
1522 1523 1524 1525 1526 1527 1528 1529 1530 1530 1531 1531 1531 1531 1532 1532 1532 1532 1532 1532 1532 1532 1531 1531 1531 1531 1531 1530 1530 1530 1531 1531 1531 1531 1532 1532 1532 1531 1531 1530 1530 1530 1530
1522 1524 1524 1526 1527 1528 1528 1529 1530 1530 1531 1531 1531 1531 1531 1531 1532 1532 1532 1532 1532 1531 1531 1531 1531 1531 1531 1531 1531 1531 1531 1531 1531 1532 1532 1532 1532 1531 1531 1531 1530 1530 1530
1523 1524 1525 1526 1526 1527 1528 1529 1529 1530 1531 1531 1531 1531 1531 1531 1531 1531 1531 1531 1531 1531 1531 1531 1531 1531 1531 1531 1531 1531 1531 1531 1531 1531 1531 1531 1531 1531 1530 1530 1530 1530 1529
1523 1524 1525 1526 1526 1527 1528 1529 1529 1530 1530 1531 1531 1531 1531 1531 1531 1531 1531 1531 1531 1531 1530 1530 1530 1530 1530 1530 1530 1530 1530 1530 1531 1531 1531 1531 1530 1530 1530 1530 1529 1529 1529
1522 1524 1525 1526 1527 1527 1528 1528 1529 1529 1530 1530 1530 1530 1530 1530 1530 1530 1530 1530 1530 1530 1530 1530 1530 1530 1530 1529 1530 1530 1530 1530 1530 1531 1530 1530 1530 1530 1529 1529 1529 1528 1528
1522 1523 1524 1525 1526 1527 1527 1528 1528 1529 1529 1529 1529 1530 1529 1529 1529 1529 1529 1529 1529 1529 1529 1529 1529 1529 1529 1529 1529 1529 1529 1529 1530 1530 1530 1529 1529 1529 1528 1528 1528 1527 1527
1521 1522 1524 1525 1525 1526 1527 1527 1527 1528 1528 1528 1528 1528 1528 1528 1528 1528 1528 1528 1528 1528 1527 1527 1528 1528 1528 1527 1527 1528 1528 1528 1528 1528 1528 1528 1527 1527 1527 1527 1526 1526 1526
1520 1521 1523 1524 1524 1525 1525 1526 1526 1526 1527 1527 1527 1526 1526 1526 1526 1526 1526 1526 1526 1526 1526 1526 1526 1526 1526 1526 1526 1526 1526 1526 1526 1526 1526 1526 1526 1526 1526 1525 1525 1525 1525
1520 1520 1521 1522 1523 1524 1524 1524 1525 1525 1525 1525 1525 1525 1525 1525 1525 1525 1525 1525 1524 1524 1524 1524 1524 1524 1524 1524 1524 1524 1524 1524 1524 1524 1524 1523 1524 1524 1524 1524 1523 1523 1523
1518 1519 1520 1521 1522 1522 1523 1523 1523 1523 1524 1524 1524 1524 1523 1523 1523 1523 1523 1523 1522 1522 1522 1522 1522 1522 1522 1522 1522 1521 1521 1521 1521 1521 1521 1521 1521 1521 1521 1521 1521 1521 1521
1517 1517 1518 1519 1520 1521 1521 1522 1522 1522 1522 1522 1522 1522 1522 1521 1521 1521 1521 1520 1520 1520 1520 1520 1520 1519 1519 1519 1519 1519 1519 1519 1519 1519 1518 1518 1518 1519 1519 1519 1518 1518 1518
1514 1516 1517 1518 1518 1519 1520 1520 1520 1520 1520 1520 1520 1520 1519 1519 1519 1519 1518 1518 1518 1517 1517 1517 1517 1517 1517 1516 1516 1516 1516 1516 1515 1515 1515 1515 1515 1515 1516 1516 1515 1515 1515
1512 1514 1515 1516 1517 1517 1517 1518 1518 1518 1518 1518 1517 1517 1517 1517 1516 1516 1516 1515 1515 1515 1514 1514 1514 1514 1514 1513 1513 1513 1513 1512 1512 1512 1512 1512 1512 1512 1512 1512 1512 1512 1511
1510 1512 1513 1514 1514 1515 1515 1515 1516 1516 1516 1515 1515 1515 1515 1514 1514 1514 1513 1513 1512 1512 1511 1511 1511 1511 1510 1510 1510 1509 1509 1509 1509 1509 1509 1508 1508 1508 1508 1508 1508 1508 1508
1508 1509 1510 1511 1512 1513 1513 1513 1513 1513 1513 1513 1513 1512 1512 1512 1511 1511 1510 1510 1509 1509 1508 1508 1508 1507 1507 1506 1506 1506 1506 1505 1505 1505 1505 1505 1505 1505 1504 1504 1504 1504 1504
1506 1507 1508 1509 1510 1510 1510 1511 1511 1511 1511 1510 1510 1510 1509 1509 1508 1508 1507 1507 1506 1506 1505 1505 1504 1504 1503 1503 1502 1502 1502 1501 1501 1501 1501 1501 1501 1501 1501 1500 1500 1500 1499
1504 1505 1506 1506 1507 1507 1507 1508 1508 1508 1508 1508 1507 1507 1506 1506 1505 1505 1504 1504 1503 1503 1502 1502 1501 1501 1500 1500 1499 1498 1498 1497 1497 1497 1498 1497 1498 1497 1497 1496 1496 1496 1495
1501 1502 1503 1504 1504 1504 1505 1505 1505 1505 1505 1505 1504 1504 1503 1503 1502 1502 1501 1501 1500 1499 1499 1498 1498 1497 1497 1497 1497 1496 1496 1496 1493 1493 1493 1493 1494 1493 1493 1492 1492 1491 1491
1499 1499 1500 1501 1501 1502 1502 1502 1502 1502 1501 1501 1501 1500 1500 1499 1499 1498 1498 1497 1497 1496 1495 1495 1495 1494 1494 1494 1494 1494 1494 1492 1491 1490 1489 1489 1489 1489 1488 1488 1487 1487 1486
1496 1497 1497 1498 1498 1499 1499 1498 1498 1498 1498 1497 1497 1496 1496 1495 1495 1494 1494 1493 1493 1492 1492 1491 1491 1491 1491 1490 1490 1490 1490 1489 1489 1486 1486 1485 1485 1484 1484 1483 1483 1482 1481
1493 1493 1494 1494 1495 1495 1495 1495 1495 1494 1494 1494 1493 1493 1492 1491 1491 1490 1489 1489 1488 1488 1487 1487 1487 1486 1486 1486 1486 1486 1485 1486 1485 1484 1482 1482 1481 1480 1479 1479 1478 1478 1477
1490 1491 1491 1491 1491 1491 1491 1491 1491 1491 1490 1490 1489 1488 1488 1487 1486 1485 1485 1484 1484 1483 1483 1482 1482 1482 1481 1481 1481 1481 1481 1481 1481 1480 1479 1478 1476 1475 1474 1474 1474 1473 1473